Time,TemperatureF,DewpointF,PressureIn,WindDirection,WindDirectionDegrees,WindSpeedMPH,WindSpeedGustMPH,Humidity,HourlyPrecipIn,Conditions,Clouds,dailyrainin,SoftwareType,DateUTC
2013-11-26 00:00:00,36.0,17.6,30.37,SSE,158,0.0,0.0,47,0.00,,,0.00,WUHU216HW,2013-11-26 05:00:00,
2013-11-26 00:01:00,36.0,17.6,30.37,SSE,158,0.0,0.0,47,0.00,,,0.00,WUHU216HW,2013-11-26 05:01:00,
2013-11-26 00:02:00,36.0,17.6,30.37,SSE,158,0.0,0.0,47,0.00,,,0.00,WUHU216HW,2013-11-26 05:02:00,
2013-11-26 00:07:00,36.0,17.6,30.37,SSE,158,0.0,0.0,47,0.00,,,0.00,WUHU216HW,2013-11-26 05:07:00,
2013-11-26 00:30:00,36.4,17.5,30.36,South,180,0.0,0.0,46,0.00,,,0.00,WUHU216HW,2013-11-26 05:30:00,
2013-11-26 00:35:00,36.4,17.5,30.36,South,180,0.0,0.0,46,0.00,,,0.00,WUHU216HW,2013-11-26 05:35:00,
2013-11-26 01:00:00,36.5,17.1,30.34,WNW,293,0.0,0.0,45,0.00,,,0.00,WUHU216HW,2013-11-26 06:00:00,
2013-11-26 01:05:00,36.5,17.1,30.34,WNW,293,0.0,0.0,45,0.00,,,0.00,WUHU216HW,2013-11-26 06:05:00,
2013-11-26 01:30:00,36.7,17.3,30.32,NNW,338,0.4,0.4,45,0.00,,,0.00,WUHU216HW,2013-11-26 06:30:00,
2013-11-26 01:35:00,36.7,17.3,30.32,NNW,338,0.4,0.4,45,0.00,,,0.00,WUHU216HW,2013-11-26 06:35:00,
2013-11-26 02:00:00,36.9,17.5,30.30,SE,135,0.0,0.0,45,0.00,,,0.00,WUHU216HW,2013-11-26 07:00:00,
2013-11-26 02:05:00,36.9,17.5,30.30,SE,135,0.0,0.0,45,0.00,,,0.00,WUHU216HW,2013-11-26 07:05:00,
2013-11-26 02:30:00,36.7,17.3,30.31,North,0,0.0,0.0,45,0.00,,,0.00,WUHU216HW,2013-11-26 07:30:00,
2013-11-26 02:35:00,36.7,17.3,30.31,North,0,0.0,0.0,45,0.00,,,0.00,WUHU216HW,2013-11-26 07:35:00,
2013-11-26 03:00:00,36.9,17.9,30.28,NNE,23,0.4,0.4,46,0.00,,,0.00,WUHU216HW,2013-11-26 08:00:00,
2013-11-26 03:05:00,36.9,17.9,30.28,NNE,23,0.4,0.4,46,0.00,,,0.00,WUHU216HW,2013-11-26 08:05:00,
2013-11-26 03:30:00,37.1,18.6,30.28,ENE,68,0.0,0.0,47,0.00,,,0.00,WUHU216HW,2013-11-26 08:30:00,
2013-11-26 03:35:00,37.1,18.6,30.28,ENE,68,0.0,0.0,47,0.00,,,0.00,WUHU216HW,2013-11-26 08:35:00,
2013-11-26 04:00:00,37.1,18.6,30.26,NE,45,0.0,0.0,47,0.00,,,0.00,WUHU216HW,2013-11-26 09:00:00,
2013-11-26 04:05:00,37.1,18.6,30.26,NE,45,0.0,0.0,47,0.00,,,0.00,WUHU216HW,2013-11-26 09:05:00,
2013-11-26 04:30:00,37.1,18.1,30.27,NNW,338,0.2,0.2,46,0.00,,,0.00,WUHU216HW,2013-11-26 09:30:00,
2013-11-26 04:35:00,37.1,18.1,30.27,NNW,338,0.2,0.2,46,0.00,,,0.00,WUHU216HW,2013-11-26 09:35:00,
2013-11-26 05:00:00,37.1,19.2,30.28,North,0,0.0,0.0,48,0.00,,,0.00,WUHU216HW,2013-11-26 10:00:00,
2013-11-26 05:05:00,37.1,19.2,30.28,North,0,0.0,0.0,48,0.00,,,0.00,WUHU216HW,2013-11-26 10:05:00,
2013-11-26 05:30:00,36.4,20.9,30.27,ENE,68,0.0,0.0,53,0.00,,,0.00,WUHU216HW,2013-11-26 10:30:00,
2013-11-26 05:35:00,36.4,20.9,30.27,ENE,68,0.0,0.0,53,0.00,,,0.00,WUHU216HW,2013-11-26 10:35:00,
2013-11-26 06:00:00,36.2,21.5,30.27,North,0,0.0,0.0,55,0.00,,,0.00,WUHU216HW,2013-11-26 11:00:00,
2013-11-26 06:05:00,36.2,21.5,30.27,North,0,0.0,0.0,55,0.00,,,0.00,WUHU216HW,2013-11-26 11:05:00,
2013-11-26 06:30:00,36.2,21.5,30.25,NNE,23,0.2,0.2,55,0.00,,,0.00,WUHU216HW,2013-11-26 11:30:00,
2013-11-26 06:35:00,36.2,21.5,30.25,NNE,23,0.2,0.2,55,0.00,,,0.00,WUHU216HW,2013-11-26 11:35:00,
2013-11-26 07:00:00,36.0,21.4,30.25,ENE,68,0.7,0.7,55,0.00,,,0.00,WUHU216HW,2013-11-26 12:00:00,
2013-11-26 07:05:00,36.0,21.4,30.25,ENE,68,0.7,0.7,55,0.00,,,0.00,WUHU216HW,2013-11-26 12:05:00,
2013-11-26 07:30:00,36.0,21.4,30.24,ESE,113,1.8,1.8,55,0.00,,,0.00,WUHU216HW,2013-11-26 12:30:00,
2013-11-26 07:35:00,36.0,21.4,30.24,ESE,113,1.8,1.8,55,0.00,,,0.00,WUHU216HW,2013-11-26 12:35:00,
2013-11-26 08:00:00,35.6,22.3,30.22,North,0,0.9,0.9,58,0.00,,,0.00,WUHU216HW,2013-11-26 13:00:00,
2013-11-26 08:05:00,35.6,22.3,30.22,North,0,0.9,0.9,58,0.00,,,0.00,WUHU216HW,2013-11-26 13:05:00,
2013-11-26 08:30:00,35.6,23.2,30.21,NE,45,1.6,1.6,60,0.00,,,0.00,WUHU216HW,2013-11-26 13:30:00,
2013-11-26 08:35:00,35.6,23.2,30.21,NE,45,1.6,1.6,60,0.00,,,0.00,WUHU216HW,2013-11-26 13:35:00,
2013-11-26 09:00:00,36.4,23.9,30.20,ESE,113,0.2,0.2,60,0.00,,,0.00,WUHU216HW,2013-11-26 14:00:00,
2013-11-26 09:05:00,36.4,23.9,30.20,ESE,113,0.2,0.2,60,0.00,,,0.00,WUHU216HW,2013-11-26 14:05:00,
2013-11-26 09:30:00,36.4,24.9,30.18,NE,45,0.7,0.7,63,0.00,,,0.00,WUHU216HW,2013-11-26 14:30:00,
2013-11-26 09:35:00,36.4,24.9,30.18,NE,45,0.7,0.7,63,0.00,,,0.00,WUHU216HW,2013-11-26 14:35:00,
2013-11-26 10:00:00,36.2,26.3,30.17,NNE,23,0.4,0.4,67,0.00,,,0.00,WUHU216HW,2013-11-26 15:00:00,
2013-11-26 10:05:00,36.2,26.3,30.17,NNE,23,0.4,0.4,67,0.00,,,0.00,WUHU216HW,2013-11-26 15:05:00,
2013-11-26 10:30:00,36.2,28.0,30.16,North,0,0.7,0.7,72,0.00,,,0.00,WUHU216HW,2013-11-26 15:30:00,
2013-11-26 10:35:00,36.2,28.0,30.16,North,0,0.7,0.7,72,0.00,,,0.00,WUHU216HW,2013-11-26 15:35:00,
2013-11-26 11:00:00,36.0,28.8,30.15,North,0,0.9,0.9,75,0.00,,,0.00,WUHU216HW,2013-11-26 16:00:00,
2013-11-26 11:05:00,36.0,28.8,30.15,North,0,0.9,0.9,75,0.00,,,0.00,WUHU216HW,2013-11-26 16:05:00,
2013-11-26 11:30:00,36.4,30.2,30.12,NNE,23,1.1,1.1,78,0.00,,,0.00,WUHU216HW,2013-11-26 16:30:00,
2013-11-26 11:35:00,36.4,30.2,30.12,NNE,23,1.1,1.1,78,0.00,,,0.00,WUHU216HW,2013-11-26 16:35:00,
2013-11-26 12:00:00,36.7,31.4,30.09,NNE,23,1.1,1.1,81,0.00,,,0.00,WUHU216HW,2013-11-26 17:00:00,
2013-11-26 12:05:00,36.7,31.4,30.09,NNE,23,1.1,1.1,81,0.00,,,0.00,WUHU216HW,2013-11-26 17:05:00,
2013-11-26 12:30:00,37.1,32.4,30.06,NE,45,1.3,1.3,83,0.00,,,0.00,WUHU216HW,2013-11-26 17:30:00,
2013-11-26 12:35:00,37.1,32.4,30.06,NE,45,1.3,1.3,83,0.00,,,0.00,WUHU216HW,2013-11-26 17:35:00,
2013-11-26 13:00:00,37.8,33.4,30.04,NE,45,2.0,2.0,84,0.00,,,0.00,WUHU216HW,2013-11-26 18:00:00,
2013-11-26 13:05:00,37.8,33.4,30.04,NE,45,2.0,2.0,84,0.00,,,0.00,WUHU216HW,2013-11-26 18:05:00,
2013-11-26 13:30:00,38.0,34.1,30.00,NE,45,1.6,1.6,86,0.00,,,0.00,WUHU216HW,2013-11-26 18:30:00,
2013-11-26 13:35:00,38.0,34.1,30.00,NE,45,1.6,1.6,86,0.00,,,0.00,WUHU216HW,2013-11-26 18:35:00,
2013-11-26 14:00:00,38.7,35.1,29.97,NE,45,2.2,2.2,87,0.00,,,0.00,WUHU216HW,2013-11-26 19:00:00,
2013-11-26 14:05:00,38.7,35.1,29.97,NE,45,2.2,2.2,87,0.00,,,0.00,WUHU216HW,2013-11-26 19:05:00,
2013-11-26 14:30:00,39.4,35.8,29.95,ENE,68,1.8,1.8,87,0.00,,,0.00,WUHU216HW,2013-11-26 19:30:00,
2013-11-26 14:35:00,39.4,35.8,29.95,ENE,68,1.8,1.8,87,0.00,,,0.00,WUHU216HW,2013-11-26 19:35:00,
2013-11-26 15:00:00,40.3,36.7,29.92,East,90,1.1,1.1,87,0.00,,,0.00,WUHU216HW,2013-11-26 20:00:00,
2013-11-26 15:05:00,40.3,36.7,29.92,East,90,1.1,1.1,87,0.00,,,0.00,WUHU216HW,2013-11-26 20:05:00,
2013-11-26 15:30:00,40.9,37.3,29.89,ENE,68,1.1,1.1,87,0.00,,,0.00,WUHU216HW,2013-11-26 20:30:00,
2013-11-26 15:35:00,40.9,37.3,29.89,ENE,68,1.1,1.1,87,0.00,,,0.00,WUHU216HW,2013-11-26 20:35:00,
2013-11-26 16:00:00,41.4,37.8,29.86,ESE,113,0.4,0.4,87,0.00,,,0.00,WUHU216HW,2013-11-26 21:00:00,
2013-11-26 16:05:00,41.4,37.8,29.86,ESE,113,0.4,0.4,87,0.00,,,0.00,WUHU216HW,2013-11-26 21:05:00,
2013-11-26 16:30:00,42.1,38.5,29.83,ESE,113,1.3,1.3,87,0.00,,,0.00,WUHU216HW,2013-11-26 21:30:00,
2013-11-26 16:35:00,42.1,38.5,29.83,ESE,113,1.3,1.3,87,0.00,,,0.00,WUHU216HW,2013-11-26 21:35:00,
2013-11-26 17:00:00,45.0,42.3,29.80,SE,135,1.6,1.6,90,0.00,,,0.00,WUHU216HW,2013-11-26 22:00:00,
2013-11-26 17:05:00,45.0,42.3,29.80,SE,135,1.6,1.6,90,0.00,,,0.00,WUHU216HW,2013-11-26 22:05:00,
2013-11-26 17:30:00,47.5,44.5,29.77,ESE,113,0.9,0.9,89,0.00,,,0.00,WUHU216HW,2013-11-26 22:30:00,
2013-11-26 17:35:00,47.5,44.5,29.77,ESE,113,0.9,0.9,89,0.00,,,0.00,WUHU216HW,2013-11-26 22:35:00,
2013-11-26 18:00:00,49.5,46.7,29.73,SSE,158,4.0,4.0,90,0.00,,,0.00,WUHU216HW,2013-11-26 23:00:00,
2013-11-26 18:05:00,49.5,46.7,29.73,SSE,158,4.0,4.0,90,0.00,,,0.00,WUHU216HW,2013-11-26 23:05:00,
2013-11-26 18:30:00,51.5,48.3,29.72,SE,135,1.3,1.3,89,0.00,,,0.00,WUHU216HW,2013-11-26 23:30:00,
2013-11-26 18:35:00,51.5,48.3,29.72,SE,135,1.3,1.3,89,0.00,,,0.00,WUHU216HW,2013-11-26 23:35:00,
2013-11-26 19:00:00,53.3,50.4,29.70,SE,135,1.1,1.1,90,0.00,,,0.00,WUHU216HW,2013-11-27 00:00:00,
2013-11-26 19:05:00,53.3,50.4,29.70,SE,135,1.1,1.1,90,0.00,,,0.00,WUHU216HW,2013-11-27 00:05:00,
2013-11-26 19:30:00,55.8,52.9,29.68,East,90,1.8,1.8,90,0.00,,,0.00,WUHU216HW,2013-11-27 00:30:00,
2013-11-26 19:35:00,55.8,52.9,29.68,East,90,1.8,1.8,90,0.00,,,0.00,WUHU216HW,2013-11-27 00:35:00,
2013-11-26 20:00:00,57.8,54.9,29.66,SE,135,1.1,1.1,90,0.00,,,0.00,WUHU216HW,2013-11-27 01:00:00,
2013-11-26 20:05:00,57.8,54.9,29.66,SE,135,1.1,1.1,90,0.00,,,0.00,WUHU216HW,2013-11-27 01:05:00,
2013-11-26 20:30:00,59.6,57.2,29.64,SSW,203,4.5,4.5,92,0.00,,,0.00,WUHU216HW,2013-11-27 01:30:00,
2013-11-26 20:35:00,59.6,57.2,29.64,SSW,203,4.5,4.5,92,0.00,,,0.00,WUHU216HW,2013-11-27 01:35:00,
2013-11-26 21:00:00,61.7,59.1,29.63,SSW,203,4.0,4.0,91,0.00,,,0.00,WUHU216HW,2013-11-27 02:00:00,
2013-11-26 21:05:00,61.7,59.1,29.63,SSW,203,4.0,4.0,91,0.00,,,0.00,WUHU216HW,2013-11-27 02:05:00,
2013-11-26 21:30:00,62.5,59.6,29.62,South,180,3.1,3.1,90,0.00,,,0.00,WUHU216HW,2013-11-27 02:30:00,
2013-11-26 21:35:00,62.5,59.6,29.62,South,180,3.1,3.1,90,0.00,,,0.00,WUHU216HW,2013-11-27 02:35:00,
2013-11-26 22:00:00,52.6,48.2,29.63,NNW,338,4.7,4.7,85,0.00,,,0.00,WUHU216HW,2013-11-27 03:00:00,
2013-11-26 22:05:00,52.6,48.2,29.63,NNW,338,4.7,4.7,85,0.00,,,0.00,WUHU216HW,2013-11-27 03:05:00,
2013-11-26 22:30:00,46.8,43.8,29.63,North,0,1.1,1.1,89,0.00,,,0.00,WUHU216HW,2013-11-27 03:30:00,
2013-11-26 22:35:00,46.8,43.8,29.63,North,0,1.1,1.1,89,0.00,,,0.00,WUHU216HW,2013-11-27 03:35:00,
2013-11-26 23:00:00,45.4,42.7,29.62,North,0,2.0,2.0,90,0.00,,,0.00,WUHU216HW,2013-11-27 04:00:00,
2013-11-26 23:05:00,45.4,42.7,29.62,North,0,2.0,2.0,90,0.00,,,0.00,WUHU216HW,2013-11-27 04:05:00,
2013-11-26 23:30:00,45.0,42.6,29.61,North,0,2.2,2.2,91,0.00,,,0.00,WUHU216HW,2013-11-27 04:30:00,
2013-11-26 23:35:00,45.0,42.6,29.61,North,0,2.2,2.2,91,0.00,,,0.00,WUHU216HW,2013-11-27 04:35:00,